Location: Allie Creek
(37.5926°N, 89.8526°W)
Time: 05:10:05
(UTC+00:00)

COSMOS 2428 - Pass Details

Date: 26 September 2023
Orbit: 843 x 858 km, 70.9° (Epoch: 29 November)

Event Time Altitude Azimuth Distance (km) Brightness Sun altitude
Rises 02:14:14 0° 224° (SW) 3,390 6.1 -28.4°
Reaches altitude 10° 02:16:52 10° 233° (SW) 2,457 5.4 -28.9°
Maximum altitude 02:22:02 36° 299° (WNW) 1,311 4.1 -29.8°
Drops below altitude 10° 02:27:13 10° 6° (N) 2,468 5.3 -30.7°
Sets 02:29:53 0° 15° (NNE) 3,407 6.0 -31.2°
